Weather Roundup
Issued by NWS Corpus Christi, TX

Home | Current Version | Previous Version | Text Only | Print | Product List | Glossary On
Versions: 1 2 3 4 5 6 7 8 9 10 11 12 13 14 15 16 17 18 19 20 21 22 23 24 25 26 27 28 29 30 31 32 33 34 35 36 37 38 39 40 41 42 43 44 45 46 47 48 49 50
000
ASUS44 KCRP 252010
HRRCRP

SOUTH TEXAS REGIONAL WEATHER ROUNDUP
NATIONAL WEATHER SERVICE CORPUS CHRISTI TX
200 PM CST THU DEC 25 2014


TXZ229>244-252100-
...CORPUS CHRISTI AREA OBSERVATIONS...

CITY           SKY/WX    TMP DP  RH WIND       PRES   REMARKS
CORPUS CHRISTI CLOUDY    67  43  41 S23       30.05F
NAS CORPUS CHR PTSUNNY   66  50  56 S16       30.06F
ROCKPORT       PTSUNNY   66  48  52 S12G20    30.06F
KINGSVILLE NAS PTSUNNY   68  42  38 SE15      30.04F
ALICE          PTSUNNY   69  32  25 S18G26    30.02F
FALFURRIAS     PTSUNNY   68  36  30 S18G28    30.02F
$$

...VICTORIA AREA OBSERVATIONS...

CITY           SKY/WX    TMP DP  RH WIND       PRES   REMARKS
VICTORIA       MOSUNNY   67  46  47 S20       30.06F
BEEVILLE       FAIR      66  35  32 S18G25    30.04F
PLEASANTON     MOSUNNY   66  26  22 S17G24    30.02F
SAN ANTONIO    MOSUNNY   64  27  24 S16G25    30.00F
$$

...LAREDO AREA OBSERVATIONS...

CITY           SKY/WX    TMP DP  RH WIND       PRES   REMARKS
LAREDO         NOT AVBL
COTULLA        MOSUNNY   68  27  21 S14G25    29.98F
DEL RIO        SUNNY     66  26  22 SE23G32   29.89F
MCALLEN        CLOUDY    69  45  41 SE16G28   30.02F
HEBBRONVILLE   MOSUNNY   65  37  34 SE15G25   30.00F
$$

...OTHER TEXAS OBSERVATIONS...

CITY           SKY/WX    TMP DP  RH WIND       PRES   REMARKS
BROWNSVILLE    PTSUNNY   70  47  43 SE25G32   30.04F
HOUSTON        MOSUNNY   66  41  40 S12G24    30.08F
COL. STATION   SUNNY     64  38  38 S17G25    30.04F
AUSTIN         MOSUNNY   64  29  26 S24G36    29.99F
WACO           SUNNY     60  30  32 S23G36    29.96F
FORT WORTH     PTSUNNY   60  28  29 S31G38    29.91F
WICHITA FALLS  CLOUDY    57  25  29 S22G29    29.81F
LUBBOCK        CLOUDY    55  22  27 SW18      29.71F
EL PASO        PTSUNNY   55  13  18 S9        29.74F
$$

...MARINE OBSERVATIONS...

STATION/POSITION TIME  SKY/WX   TEMP    WIND        PRES    VSBY  WAVE   SWELL
                                AIR SEA DIR/SP/G                  HT/PER HT/PER
                 (UTC)          (F)     (DEG/KT/KT) (MB)    (MI)  (FT/S) (FT/S)
PORT ARANSAS     2000            63 59  170/ 16/ 17 1018.4F
BUOY 90 E PORT A 2000            64 72  160/ 16/ 19 1019.9F         3/ 4
BUOY 45 SE BAFFI 2000            65 72  170/ 17/ 21 1017.7F         4/ 4
BUOY 200 E PT IS 2000            65 73  160/ 12/ 16 1020.3F         2/ 6   2/ 8
BUOY 15 E GALVES 2000            60 60  160/ 14/ 17 1020.3F         2/ 3
$$


USA.gov is the U.S. government's official web portal to all federal, state and local government web resources and services.